Location: Unspecified
(0.0000°N, 0.0000°E)
Time: 18:54:39
(UTC+00:00)

Courier 1B Rocket - Pass Details

Date: 19 November 2019
Orbit: 920 x 1202 km, 28.2° (Epoch: 05 December)

Event Time Altitude Azimuth Distance (km) Brightness Sun altitude
Rises 10:34:06 0° 237° (WSW) 3,554 7.9 63.9°
Reaches altitude 10° 10:36:40 10° 236° (SW) 2,622 7.4 64.3°
Maximum altitude 10:42:58 79° 149° (SSE) 971 7.2 65.3°
Drops below altitude 10° 10:49:36 10° 64° (ENE) 2,754 7.6 66.2°
Sets 10:52:21 0° 62° (ENE) 3,745 8.1 66.6°
